Flag for United Kingdom Weather past 2 weeks in Cheltenham, England, United Kingdom

46 °F

Light rain. Broken clouds.

Feels Like: 39 °F
Forecast: N/A
Wind: 17 mph from Southwest

Location: Staverton Private

Current Time: Nov 28, 2015 at 3:29:09 PM

Latest Report: Nov 28, 2015 at 2:50 PM

Visibility: N/A

Pressure: 29.68 "Hg

Humidity: 93%

Dew point: 45 °F

Location of CheltenhamLocation

Historic Weather in Cheltenham — Graph


Cheltenham temperature yesterday

Maximum temperature yesterday: 54 °F (at 7:50 AM)
Minimum temperature yesterday: 45 °F (at 6:50 PM)
Average temperature yesterday: 51 °F

Past Weeks' High & Low Weather Summary

High61 °F (Nov 15, 12:50 PM)100% (Nov 17, 6:50 AM)30.30 "Hg (Nov 17, 6:50 AM)
Low30 °F (Nov 23, 7:20 AM)45% (Nov 21, 2:20 PM)29.45 "Hg (Nov 17, 1:20 PM)
Average49 °F83%29.89 "Hg
* Reported Nov 13 1:20 PM — Nov 28 1:50 PM, Cheltenham, Weather by CustomWeather, © 2015

Note: Actual official high and low records may vary slightly from our data, if they occured in-between our weather recording intervals... More about our weather records


Cheltenham weather history for previous 24 hours

Time TempWeatherWind HumidityBarometerVisibility
1:50 PM
Sat, Nov 28
46 °FRain. Partly sunny.17 mph87%29.74 "Hg6 mi
1:20 PM45 °FLight rain. Partly sunny.14 mph93%29.77 "Hg6 mi
12:50 PM45 °FLight rain. Partly sunny.15 mph93%29.77 "Hg6 mi
12:20 PM45 °FLight rain. Partly sunny.18 mph93%29.80 "Hg6 mi
11:50 AM45 °FLight rain. Partly sunny.13 mph87%29.83 "Hg6 mi
11:20 AM45 °FSprinkles. Scattered clouds.15 mph87%29.86 "HgN/A
10:50 AM45 °FSprinkles. Scattered clouds.14 mph87%29.89 "HgN/A
10:20 AM45 °FSprinkles. Scattered clouds.16 mph81%29.89 "HgN/A
9:50 AM45 °FPassing clouds.14 mph81%29.89 "HgN/A
9:20 AM43 °FPassing clouds.8 mph81%29.92 "HgN/A
8:50 AM43 °FPassing clouds.9 mph76%29.92 "HgN/A
8:20 AM39 °FPassing clouds.6 mph81%29.92 "HgN/A
7:20 PM
Fri, Nov 27
46 °FPassing clouds.12 mph87%29.71 "HgN/A
6:50 PM45 °FLight rain. Passing clouds.5 mph93%29.71 "HgN/A
6:20 PM46 °FRain. Passing clouds.6 mph87%29.71 "HgN/A
5:50 PM46 °FRain. Passing clouds.15 mph87%29.68 "HgN/A
5:20 PM52 °FHeavy rain. Partly cloudy.20 mph94%29.65 "HgN/A
4:50 PM52 °FScattered showers. Partly cloudy.15 mph94%29.59 "HgN/A
4:20 PM52 °FScattered showers. Partly cloudy.12 mph94%29.62 "HgN/A
3:50 PM52 °FScattered showers. Broken clouds.13 mph94%29.62 "HgN/A
3:20 PM54 °FScattered showers. Broken clouds.13 mph88%29.65 "HgN/A
Weather by CustomWeather, © 2015

See weather overviewHow to use our weather pages